When you browse on this site, cookies collect data to enhance your experience and personalize the content and advertising you see.
Visit our Privacy Policy to learn more. By continuing to use the site, you agree to this use of cookies and data.
  • En España
  • Lista de países
  • Para 7 días
  • Temperatura del agua
  • Mapa Satelital
  • El tiempo en el mapa
  • Informadores
  • user-avatar
    Iniciar sesión

    Tiempo cada hora Bolshie Baydiki

    Hoy, 24 Junio, Lunes

    Tiempo Temperatura Precipitaciones Viento Presión Humedad
    00:00 +17°C° 0.5 mm 4 mps 744 mmHg 85%
    01:00 +17°C° 0.1 mm 3 mps 744 mmHg 86%
    02:00 +16°C° 0.1 mm 3 mps 744 mmHg 87%
    03:00 +14°C° 0 mm 3 mps 744 mmHg 88%
    04:00 +14°C° 0.1 mm 3 mps 744 mmHg 87%
    05:00 +14°C° 0.1 mm 3 mps 744 mmHg 87%
    06:00 +14°C° 0.1 mm 4 mps 744 mmHg 87%
    07:00 +15°C° 0.2 mm 4 mps 745 mmHg 84%
    08:00 +17°C° 0.2 mm 3 mps 745 mmHg 82%
    09:00 +18°C° 0 mm 3 mps 746 mmHg 80%
    10:00 +19°C° 0 mm 3 mps 746 mmHg 74%
    11:00 +21°C° 0 mm 3 mps 745 mmHg 67%
    12:00 +22°C° 0 mm 3 mps 745 mmHg 61%
    13:00 +22°C° 0 mm 3 mps 745 mmHg 60%
    14:00 +24°C° 0 mm 3 mps 746 mmHg 59%
    15:00 +24°C° 0 mm 3 mps 746 mmHg 58%
    16:00 +24°C° 0 mm 3 mps 746 mmHg 60%
    17:00 +24°C° 0 mm 3 mps 746 mmHg 61%
    18:00 +24°C° 0 mm 2 mps 746 mmHg 62%
    19:00 +21°C° 0 mm 2 mps 746 mmHg 65%
    20:00 +19°C° 0 mm 2 mps 746 mmHg 68%
    21:00 +18°C° 0 mm 2 mps 747 mmHg 71%
    22:00 +17°C° 0 mm 2 mps 747 mmHg 72%
    23:00 +16°C° 0 mm 2 mps 747 mmHg 72%

    Mañana, 25 Junio, Martes

    Tiempo Temperatura Precipitaciones Viento Presión Humedad
    00:00 +15°C° 0 mm 2 mps 747 mmHg 72%
    01:00 +15°C° 0 mm 2 mps 747 mmHg 73%
    02:00 +14°C° 0 mm 2 mps 748 mmHg 74%
    03:00 +14°C° 0 mm 2 mps 748 mmHg 74%
    04:00 +14°C° 0 mm 2 mps 748 mmHg 75%
    05:00 +14°C° 0 mm 2 mps 748 mmHg 76%
    06:00 +14°C° 0 mm 2 mps 748 mmHg 77%
    07:00 +16°C° 0 mm 3 mps 749 mmHg 73%
    08:00 +17°C° 0 mm 3 mps 749 mmHg 70%
    09:00 +18°C° 0 mm 3 mps 750 mmHg 66%
    10:00 +19°C° 0 mm 3 mps 750 mmHg 62%
    11:00 +20°C° 0 mm 3 mps 750 mmHg 58%
    12:00 +21°C° 0 mm 3 mps 750 mmHg 53%
    13:00 +21°C° 0 mm 3 mps 750 mmHg 52%
    14:00 +22°C° 0 mm 3 mps 750 mmHg 51%
    15:00 +22°C° 0 mm 3 mps 750 mmHg 50%
    16:00 +21°C° 0 mm 3 mps 749 mmHg 54%
    17:00 +21°C° 0 mm 3 mps 749 mmHg 59%
    18:00 +21°C° 0 mm 2 mps 749 mmHg 64%
    19:00 +19°C° 0 mm 2 mps 749 mmHg 67%
    20:00 +17°C° 0 mm 2 mps 749 mmHg 69%
    21:00 +16°C° 0 mm 2 mps 749 mmHg 71%
    22:00 +15°C° 0 mm 1 mps 749 mmHg 71%
    23:00 +14°C° 0 mm 1 mps 749 mmHg 72%

    Pasado mañana, 26 Junio, Miércoles

    Tiempo Temperatura Precipitaciones Viento Presión Humedad
    00:00 +13°C° 0 mm 1 mps 749 mmHg 72%
    01:00 +13°C° 0 mm 1 mps 749 mmHg 73%
    02:00 +13°C° 0 mm 1 mps 749 mmHg 73%
    03:00 +12°C° 0 mm 1 mps 749 mmHg 74%
    04:00 +13°C° 0 mm 1 mps 749 mmHg 75%
    05:00 +14°C° 0 mm 1 mps 749 mmHg 75%
    06:00 +14°C° 0 mm 1 mps 749 mmHg 76%
    07:00 +16°C° 0 mm 2 mps 749 mmHg 73%
    08:00 +17°C° 0 mm 2 mps 748 mmHg 69%
    09:00 +19°C° 0 mm 2 mps 748 mmHg 66%
    10:00 +20°C° 0.1 mm 3 mps 748 mmHg 63%
    11:00 +20°C° 0.1 mm 3 mps 748 mmHg 60%
    12:00 +21°C° 0.1 mm 4 mps 747 mmHg 58%
    13:00 +22°C° 0.1 mm 4 mps 747 mmHg 58%
    14:00 +22°C° 0.1 mm 4 mps 746 mmHg 58%
    15:00 +22°C° 0.1 mm 5 mps 746 mmHg 59%
    16:00 +20°C° 0.5 mm 5 mps 745 mmHg 67%
    17:00 +19°C° 0.5 mm 4 mps 745 mmHg 76%
    18:00 +17°C° 0.5 mm 4 mps 744 mmHg 85%
    19:00 +16°C° 0.4 mm 3 mps 744 mmHg 87%
    20:00 +15°C° 0.4 mm 2 mps 744 mmHg 90%
    21:00 +14°C° 0.4 mm 1 mps 743 mmHg 93%
    22:00 +14°C° 0.1 mm 1 mps 743 mmHg 93%
    23:00 +14°C° 0.1 mm 1 mps 743 mmHg 94%

    27 Junio, Jueves

    Tiempo Temperatura Precipitaciones Viento Presión Humedad
    00:00 +14°C° 0.1 mm 1 mps 742 mmHg 94%
    01:00 +13°C° 0 mm 1 mps 742 mmHg 94%
    02:00 +13°C° 0 mm 1 mps 741 mmHg 94%
    03:00 +13°C° 0 mm 1 mps 741 mmHg 94%
    04:00 +13°C° 0 mm 1 mps 741 mmHg 93%
    05:00 +13°C° 0 mm 1 mps 740 mmHg 92%
    06:00 +14°C° 0 mm 1 mps 740 mmHg 91%
    07:00 +14°C° 0.1 mm 1 mps 739 mmHg 91%
    08:00 +14°C° 0.1 mm 2 mps 738 mmHg 91%
    09:00 +13°C° 0.1 mm 3 mps 738 mmHg 91%
    10:00 +13°C° 1.7 mm 4 mps 737 mmHg 93%
    11:00 +13°C° 1.7 mm 5 mps 736 mmHg 94%
    12:00 +13°C° 1.7 mm 6 mps 735 mmHg 95%
    13:00 +14°C° 4.4 mm 6 mps 734 mmHg 96%
    14:00 +14°C° 4.4 mm 6 mps 734 mmHg 96%
    15:00 +14°C° 4.4 mm 7 mps 733 mmHg 96%
    16:00 +15°C° 3.9 mm 6 mps 732 mmHg 96%
    17:00 +17°C° 3.9 mm 4 mps 731 mmHg 96%
    18:00 +18°C° 3.9 mm 3 mps 730 mmHg 96%
    19:00 +18°C° 3 mm 3 mps 729 mmHg 95%
    20:00 +18°C° 3 mm 3 mps 728 mmHg 95%
    21:00 +18°C° 3 mm 3 mps 727 mmHg 94%
    22:00 +18°C° 2.5 mm 4 mps 726 mmHg 94%
    23:00 +17°C° 2.5 mm 4 mps 725 mmHg 95%

    28 Junio, Viernes

    Tiempo Temperatura Precipitaciones Viento Presión Humedad
    00:00 +16°C° 2.5 mm 5 mps 724 mmHg 95%
    01:00 +16°C° 0.4 mm 5 mps 724 mmHg 95%
    02:00 +15°C° 0.4 mm 5 mps 723 mmHg 95%
    03:00 +15°C° 0.4 mm 5 mps 723 mmHg 94%
    04:00 +14°C° 0 mm 5 mps 722 mmHg 94%
    05:00 +14°C° 0 mm 6 mps 722 mmHg 93%
    06:00 +13°C° 0 mm 6 mps 722 mmHg 93%
    07:00 +13°C° 0 mm 6 mps 722 mmHg 92%
    08:00 +13°C° 0 mm 6 mps 721 mmHg 91%
    09:00 +13°C° 0 mm 6 mps 721 mmHg 90%
    10:00 +13°C° 0.1 mm 6 mps 721 mmHg 88%
    11:00 +14°C° 0.1 mm 6 mps 721 mmHg 86%
    12:00 +14°C° 0.1 mm 7 mps 721 mmHg 85%
    13:00 +12°C° 0.5 mm 7 mps 721 mmHg 87%
    14:00 +13°C° 0.5 mm 6 mps 720 mmHg 90%
    15:00 +11°C° 0.5 mm 6 mps 720 mmHg 92%
    16:00 +11°C° 0.5 mm 6 mps 720 mmHg 93%
    17:00 +12°C° 0.5 mm 5 mps 720 mmHg 93%
    18:00 +11°C° 0.5 mm 4 mps 720 mmHg 94%
    19:00 +11°C° 0.3 mm 4 mps 720 mmHg 95%
    20:00 +11°C° 0.3 mm 4 mps 720 mmHg 95%
    21:00 +11°C° 0.3 mm 4 mps 720 mmHg 96%
    22:00 +11°C° 0.2 mm 4 mps 720 mmHg 96%
    23:00 +11°C° 0.2 mm 4 mps 720 mmHg 96%

    29 Junio, Sábado

    Tiempo Temperatura Precipitaciones Viento Presión Humedad
    00:00 +11°C° 0.2 mm 4 mps 720 mmHg 96%
    01:00 +10°C° 0.4 mm 5 mps 720 mmHg 96%
    02:00 +10°C° 0.4 mm 6 mps 719 mmHg 95%
    03:00 +10°C° 0.4 mm 6 mps 719 mmHg 95%
    04:00 +10°C° 0.8 mm 6 mps 719 mmHg 95%
    05:00 +10°C° 0.8 mm 6 mps 719 mmHg 95%
    06:00 +10°C° 0.8 mm 6 mps 719 mmHg 95%
    07:00 +10°C° 0.6 mm 6 mps 719 mmHg 95%
    08:00 +10°C° 0.6 mm 6 mps 719 mmHg 95%
    09:00 +10°C° 0.6 mm 6 mps 719 mmHg 95%
    10:00 +10°C° 0.5 mm 6 mps 720 mmHg 94%
    11:00 +10°C° 0.5 mm 5 mps 720 mmHg 94%
    12:00 +12°C° 0.5 mm 5 mps 720 mmHg 93%
    13:00 +12°C° 0.3 mm 5 mps 721 mmHg 93%
    14:00 +12°C° 0.3 mm 5 mps 721 mmHg 93%
    15:00 +12°C° 0.3 mm 4 mps 721 mmHg 93%
    16:00 +12°C° 0.4 mm 4 mps 721 mmHg 94%
    17:00 +12°C° 0.4 mm 4 mps 722 mmHg 94%
    18:00 +12°C° 0.4 mm 4 mps 722 mmHg 95%
    19:00 +11°C° 0.3 mm 3 mps 722 mmHg 96%
    20:00 +11°C° 0.3 mm 3 mps 722 mmHg 96%
    21:00 +11°C° 0.3 mm 3 mps 722 mmHg 97%
    22:00 +12°C° 0.3 mm 2 mps 722 mmHg 97%
    23:00 +12°C° 0.3 mm 2 mps 722 mmHg 97%
    Mostrar más